[[{"header":{"parameterUnit":"m.s-1","parameterCategory":1,"la1":30.2991,"la2":30.254,"lo1":-89.0895,"lo2":-89.0444,"dy":0.0017,"dx":0.0017,"nx":28,"ny":28,"refTime":"2025-09-19T03:00:00:Z","depth":0,"parameterNumber":2,"parameterNumberName":"U-component_of_WINDS"},"data":[0,0,0,0,0,0,0,0,0,0,0,0,0,0,0,0,0,0,0,0,0,0,0,0,0,0,0,0,0,0,0,0,0,0,0,0,0,0,0,0,0,0,0,0,0,0,0,0,0,0,0,0,0,0,0,0,0,0,0.9045,0.9045,0,0.9044,0.9044,0.9044,0.9024,0.9023,0.9023,0.9022,0.9021,0.9021,0.9022,0,0,0,0,0,0,0,0,0,0,0,0,0,0.9029,0.903,0.9045,0.9045,0.9045,0.9044,0.9044,0.9044,0.9024,0.9023,0.9023,0.9022,0.9021,0.9021,0.9022,0,0,0,0,0,0,0,0,0,0,0,0,0,0.9033,0.903,0.9045,0.9035,0.9034,0.9044,0.9044,0.9044,0.9024,0.9023,0.9022,0.9022,0.9021,0.9021,0.9022,0.9041,0,0,0.9024,0.9024,0,0,0,0,0,0,0,0,0.9033,0.9034,0.9036,0.9035,0.9034,0.9033,0.9038,0.9043,0.9024,0.9028,0.9022,0.9021,0.9026,0.9026,0.9027,0.9041,0.9041,0.9024,0.9024,0.9025,0.9025,0,0,0,0,0,0,0,0.9033,0.9034,0.9044,0.9036,0.9035,0.903,0.903,0.9039,0.9031,0.9027,0.9026,0.9026,0.9025,0.9027,0.9027,0.9041,0.9024,0.9025,0.9025,0.9025,0.9072,0.9072,0,0,0,0,0,0,0.9034,0.9033,0.9044,0.9044,0.9032,0.9031,0.9031,0.9034,0.9031,0.9029,0.9027,0.9025,0.9026,0.9026,0.9027,0.905,0.9025,0.9025,0.9026,0.9071,0.9072,0.9073,0,0,0,0,0,0,0.9033,0.9035,0.9044,0.9038,0.9039,0.9032,0.9036,0.9035,0.9036,0.903,0.9029,0.903,0.9025,0.9026,0.9038,0.9049,0.9026,0.9026,0.907,0.9071,0.9072,0.9095,0,0,0,0,0,0,0.9033,0.9035,0.9042,0.9039,0.904,0.9055,0.9037,0.9035,0.9037,0.9035,0.9033,0.9032,0.9025,0.9037,0.9039,0.905,0.9027,0.9069,0.907,0.9072,0.9093,0.9097,0.91,0,0,0,0,0,0.9033,0.9048,0.9043,0.9044,0.9048,0.9056,0.9057,0.9048,0.9038,0.9046,0.9042,0.9032,0.9048,0.9039,0.904,0.9052,0.9068,0.907,0.9072,0.9092,0.9096,0.91,0,0,0,0,0,0,0.9053,0.9048,0.9041,0.9056,0.9057,0.9053,0.9061,0.9053,0.9056,0.9054,0.9044,0.9044,0.9057,0.9056,0.9045,0.907,0.9056,0.9058,0.9071,0.9075,0.9078,0.9078,0.9027,0,0,0,0,0,0.9059,0.9066,0.9061,0.9075,0.9075,0.9069,0.9071,0.9065,0.9065,0.9065,0.9062,0.9063,0.9068,0.9071,0.9076,0.9093,0.9092,0.9102,0.9105,0.9108,0.911,0.9119,0.9123,0.9079,0.9079,0.9079,0,0,0.9072,0.907,0.9075,0.9079,0.9078,0.9085,0.9069,0.9077,0.9082,0.9066,0.9077,0.9076,0.9075,0.909,0.9096,0.9089,0.9122,0.911,0.9113,0.9113,0.9122,0.9126,0.9129,0.908,0.908,0.908,0,0,0.9099,0.9098,0.911,0.911,0.911,0.9105,0.9108,0.9106,0.9104,0.9115,0.9103,0.9109,0.9119,0.9119,0.912,0.9149,0.9139,0.915,0.9168,0.9177,0.9181,0.9184,0.9194,0.9197,0.9152,0.9153,0.9153,0,0.9115,0.9125,0.9117,0.9126,0.9128,0.9115,0.9126,0.9127,0.9128,0.913,0.9122,0.9133,0.9132,0.9147,0.9154,0.9156,0.9159,0.915,0.9181,0.9184,0.9187,0.9196,0.92,0.9154,0.9154,0.9154,0.9153,0,0.9145,0.9152,0.9162,0.9164,0.9167,0.9177,0.917,0.9175,0.9169,0.9165,0.9177,0.9175,0.9179,0.9182,0.9176,0.9196,0.9192,0.9183,0.9168,0.9192,0.9201,0.9204,0.9156,0.9155,0.9155,0.9155,0,0,0.9184,0.9182,0.9185,0.9186,0.9185,0.9191,0.9201,0.9205,0.9209,0.9211,0.9219,0.9227,0.9219,0.922,0.9214,0.9222,0.9245,0.9212,0.9212,0.9218,0.9267,0.9274,0.9278,0.9239,0.924,0.924,0.9267,0,0.921,0.9227,0.922,0.9237,0.9244,0.9232,0.9241,0.9242,0.9239,0.9244,0.9241,0.9247,0.9235,0.9236,0.9244,0.9241,0.9255,0.9239,0.9246,0.9247,0.9246,0.9283,0.929,0.9315,0.9271,0.9271,0.9271,0,0.9242,0.9246,0.9264,0.9263,0.9265,0.9273,0.9277,0.9282,0.9283,0.928,0.9282,0.9275,0.9284,0.9271,0.9284,0.9273,0.9276,0.9275,0.9276,0.9276,0.926,0.9284,0.9323,0.9327,0.9277,0.9276,0.9276,0,0.9269,0.9278,0.929,0.9291,0.929,0.9296,0.9296,0.9295,0.9299,0.9302,0.9304,0.9308,0.931,0.9314,0.9307,0.9298,0.9322,0.9307,0.932,0.932,0.9325,0.9324,0.9365,0.9327,0.9327,0.9327,0.9327,0,0.9298,0.931,0.9302,0.9309,0.9322,0.9314,0.9327,0.9326,0.9326,0.9333,0.9323,0.933,0.9321,0.9327,0.9322,0.9334,0.9335,0.9333,0.9332,0.9334,0.9334,0.9335,0.9333,0.9328,0.9328,0.9328,0.9328,0,0.933,0.9325,0.9337,0.9335,0.9335,0.9345,0.9343,0.935,0.9347,0.9356,0.9357,0.9352,0.9359,0.9353,0.9359,0.9356,0.9372,0.9368,0.9372,0.9371,0.9383,0.9382,0.9426,0.9431,0.939,0.9391,0.9391,0,0.9349,0.9357,0.9357,0.9361,0.9361,0.9368,0.9371,0.9364,0.9368,0.937,0.9376,0.9382,0.9386,0.9398,0.9394,0.9399,0.9395,0.941,0.9396,0.9398,0.9395,0.9395,0.9395,0.9413,0.9414,0.9414,0.9414,0,0.9383,0.938,0.9385,0.939,0.9394,0.9398,0.94,0.9404,0.9397,0.9402,0.9409,0.9412,0.9419,0.9425,0.9429,0.9428,0.942,0.9419,0.9422,0.9424,0.9426,0.9425,0.9379,0.9418,0.9417,0.9417,0.9417,0.9417,0.9408,0.9415,0.9416,0.9423,0.9424,0.9427,0.9433,0.9431,0.9437,0.9442,0.9437,0.9446,0.9446,0.9451,0.9452,0.9458,0.9452,0.9456,0.9457,0.9458,0.946,0.9425,0.9459,0.9459,0.9459,0.9458,0.9458,0,0.9441,0.9442,0.9448,0.9452,0.9457,0.9449,0.9452,0.9456,0.9464,0.9466,0.947,0.9478,0.9484,0.9482,0.9487,0.9493,0.9489,0.9494,0.9493,0.9493,0.9466,0.9462,0.9497,0.9497,0.9497,0.9497,0.9497,0.9497,0.9459,0.9471,0.9469,0.9482,0.9482,0.949,0.9492,0.9495,0.9496,0.9506,0.951,0.9509,0.9509,0.9514,0.952,0.9519,0.9521,0.9527,0.9525,0.9499,0.9495,0.9492,0.9488,0.9528,0.9528,0.9552,0.9553,0.9553]},{"header":{"parameterUnit":"m.s-1","parameterCategory":1,"la1":30.2991,"la2":30.254,"lo1":-89.0895,"lo2":-89.0444,"dy":0.0017,"dx":0.0017,"nx":28,"ny":28,"refTime":"2025-09-19T03:00:00:Z","depth":0,"parameterNumber":3,"parameterNumberName":"V-component_of_WINDS"},"data":[0,0,0,0,0,0,0,0,0,0,0,0,0,0,0,0,0,0,0,0,0,0,0,0,0,0,0,0,0,0,0,0,0,0,0,0,0,0,0,0,0,0,0,0,0,0,0,0,0,0,0,0,0,0,0,0,0,0,-2.366,-2.3661,0,-2.3739,-2.374,-2.3741,-2.3742,-2.3741,-2.374,-2.3739,-2.3819,-2.3822,-2.3825,0,0,0,0,0,0,0,0,0,0,0,0,0,-2.3508,-2.3511,-2.366,-2.3661,-2.3662,-2.3739,-2.374,-2.3741,-2.3742,-2.3741,-2.374,-2.3739,-2.3818,-2.3822,-2.3826,0,0,0,0,0,0,0,0,0,0,0,0,0,-2.3579,-2.3511,-2.3659,-2.3672,-2.3673,-2.3739,-2.374,-2.3741,-2.3743,-2.3741,-2.374,-2.3738,-2.3817,-2.3822,-2.3826,-2.3884,0,0,-2.384,-2.3842,0,0,0,0,0,0,0,0,-2.3575,-2.3585,-2.3669,-2.3671,-2.3673,-2.3729,-2.3716,-2.3789,-2.3743,-2.3716,-2.3739,-2.3737,-2.379,-2.3797,-2.3815,-2.3888,-2.3891,-2.3841,-2.3843,-2.3845,-2.3847,0,0,0,0,0,0,0,-2.357,-2.3581,-2.3691,-2.367,-2.3673,-2.3673,-2.3681,-2.373,-2.3761,-2.3718,-2.3719,-2.3728,-2.3791,-2.3811,-2.3817,-2.3893,-2.384,-2.3845,-2.3847,-2.3849,-2.4016,-2.4018,0,0,0,0,0,0,-2.3563,-2.3577,-2.3688,-2.3693,-2.3619,-2.3677,-2.3686,-2.3713,-2.376,-2.3766,-2.3729,-2.3728,-2.3804,-2.3812,-2.382,-2.389,-2.3845,-2.385,-2.3852,-2.4014,-2.4016,-2.4018,0,0,0,0,0,0,-2.356,-2.3573,-2.3685,-2.3635,-2.365,-2.3681,-2.3711,-2.3715,-2.3734,-2.3769,-2.3774,-2.3744,-2.3803,-2.3814,-2.3868,-2.3893,-2.3852,-2.3856,-2.4012,-2.4015,-2.4017,-2.4032,0,0,0,0,0,0,-2.3555,-2.3572,-2.3594,-2.3636,-2.3652,-2.3732,-2.3712,-2.3718,-2.3743,-2.3741,-2.3783,-2.3789,-2.3803,-2.3861,-2.3873,-2.3899,-2.3859,-2.401,-2.4014,-2.4017,-2.4029,-2.4034,-2.4039,0,0,0,0,0,-2.355,-2.3595,-2.3595,-2.3609,-2.3681,-2.3734,-2.3743,-2.3758,-2.3745,-2.3767,-2.3789,-2.3787,-2.3889,-2.3867,-2.388,-2.3907,-2.4009,-2.4013,-2.4016,-2.4027,-2.4033,-2.4039,0,0,0,0,0,0,-2.3555,-2.3601,-2.3602,-2.3662,-2.3694,-2.3734,-2.3763,-2.3765,-2.3801,-2.3799,-2.3816,-2.3825,-2.3879,-2.3899,-2.3874,-2.3966,-2.3947,-2.3954,-2.3951,-2.3957,-2.3962,-2.3955,-2.3863,0,0,0,0,0,-2.3564,-2.3603,-2.364,-2.369,-2.3706,-2.3732,-2.3755,-2.3764,-2.3798,-2.3812,-2.3837,-2.387,-2.3909,-2.3934,-2.3972,-2.4032,-2.4041,-2.4058,-2.4063,-2.4066,-2.4071,-2.4104,-2.4111,-2.4031,-2.4031,-2.4031,0,0,-2.3581,-2.3611,-2.3634,-2.3692,-2.3718,-2.3757,-2.3743,-2.3786,-2.3815,-2.3818,-2.3871,-2.3891,-2.3928,-2.3986,-2.4012,-2.4004,-2.4096,-2.4071,-2.4074,-2.4077,-2.4108,-2.4116,-2.4122,-2.4033,-2.4033,-2.4032,0,0,-2.3632,-2.366,-2.3703,-2.373,-2.3769,-2.3786,-2.3797,-2.3836,-2.385,-2.3903,-2.3906,-2.3941,-2.4008,-2.4035,-2.4057,-2.4118,-2.4118,-2.413,-2.4155,-2.4186,-2.4193,-2.4198,-2.4219,-2.4226,-2.4135,-2.4136,-2.4136,0,-2.3649,-2.3709,-2.3725,-2.3768,-2.3793,-2.3798,-2.3841,-2.3866,-2.3916,-2.3933,-2.3923,-2.4007,-2.4032,-2.4095,-2.411,-2.4129,-2.414,-2.4125,-2.4191,-2.4196,-2.4202,-2.4222,-2.423,-2.4137,-2.4137,-2.4136,-2.4136,0,-2.3726,-2.3768,-2.3799,-2.3847,-2.3875,-2.3918,-2.394,-2.3967,-2.3974,-2.3991,-2.4045,-2.4077,-2.412,-2.4136,-2.4143,-2.42,-2.4193,-2.4187,-2.4168,-2.421,-2.4229,-2.4237,-2.4138,-2.4138,-2.4138,-2.4137,0,0,-2.3783,-2.3839,-2.385,-2.3872,-2.3916,-2.3948,-2.3991,-2.4034,-2.4056,-2.4091,-2.4126,-2.4183,-2.4178,-2.4203,-2.4213,-2.424,-2.4285,-2.423,-2.4231,-2.4238,-2.4349,-2.4352,-2.4361,-2.4286,-2.4288,-2.4289,-2.4345,0,-2.3838,-2.3915,-2.3931,-2.3997,-2.4035,-2.404,-2.4077,-2.4108,-2.4126,-2.4161,-2.418,-2.422,-2.421,-2.4225,-2.4253,-2.4274,-2.4308,-2.4271,-2.4318,-2.432,-2.4307,-2.4371,-2.4375,-2.4426,-2.4353,-2.4354,-2.4355,0,-2.3912,-2.3948,-2.4018,-2.4057,-2.4073,-2.4107,-2.4147,-2.418,-2.4215,-2.4226,-2.4255,-2.4262,-2.4306,-2.4286,-2.4347,-2.4321,-2.4342,-2.4356,-2.4358,-2.4362,-2.4339,-2.4375,-2.4443,-2.445,-2.4367,-2.4366,-2.4365,0,-2.3944,-2.4011,-2.4061,-2.4079,-2.4126,-2.4149,-2.4169,-2.4203,-2.4228,-2.4263,-2.4279,-2.4319,-2.4341,-2.4372,-2.4389,-2.4373,-2.4448,-2.443,-2.4457,-2.4457,-2.4472,-2.447,-2.4543,-2.4488,-2.4488,-2.4487,-2.4487,0,-2.4003,-2.4046,-2.4076,-2.4106,-2.4154,-2.4172,-2.4218,-2.4238,-2.4268,-2.4302,-2.431,-2.4341,-2.4363,-2.4398,-2.4412,-2.446,-2.447,-2.4479,-2.4482,-2.4478,-2.4476,-2.449,-2.4487,-2.4489,-2.4489,-2.4489,-2.4488,0,-2.4047,-2.4069,-2.4123,-2.4163,-2.4174,-2.4207,-2.4241,-2.427,-2.4289,-2.4332,-2.4343,-2.4371,-2.4413,-2.4434,-2.4485,-2.4495,-2.4548,-2.4549,-2.4536,-2.4537,-2.4562,-2.4559,-2.4645,-2.4657,-2.4595,-2.4596,-2.4596,0,-2.4082,-2.4115,-2.4158,-2.4181,-2.4202,-2.424,-2.4265,-2.4285,-2.431,-2.4353,-2.4377,-2.4419,-2.4453,-2.4519,-2.4544,-2.4583,-2.4585,-2.4612,-2.4591,-2.4585,-2.4583,-2.4581,-2.4583,-2.4616,-2.4616,-2.4617,-2.4617,0,-2.4142,-2.4151,-2.4188,-2.4228,-2.4258,-2.429,-2.4322,-2.4341,-2.4365,-2.4394,-2.4436,-2.4463,-2.4516,-2.4557,-2.4598,-2.4618,-2.4621,-2.4624,-2.4632,-2.4627,-2.4617,-2.4621,-2.4545,-2.4621,-2.4621,-2.4621,-2.462,-2.462,-2.4182,-2.421,-2.4245,-2.4285,-2.4311,-2.4341,-2.437,-2.4392,-2.4428,-2.4472,-2.4482,-2.4526,-2.456,-2.4616,-2.4638,-2.4672,-2.4666,-2.4679,-2.4681,-2.4684,-2.4684,-2.4613,-2.468,-2.468,-2.468,-2.468,-2.468,0,-2.4241,-2.4263,-2.43,-2.4344,-2.4376,-2.4377,-2.4412,-2.4438,-2.4477,-2.4509,-2.4542,-2.4591,-2.4631,-2.4659,-2.4699,-2.4722,-2.4724,-2.4732,-2.4729,-2.4734,-2.4688,-2.4676,-2.4729,-2.4729,-2.4729,-2.4729,-2.4729,-2.4729,-2.4275,-2.4323,-2.4337,-2.4398,-2.442,-2.4464,-2.4484,-2.4511,-2.4536,-2.459,-2.4623,-2.4642,-2.4672,-2.4714,-2.4751,-2.4758,-2.4772,-2.4779,-2.4786,-2.4742,-2.4737,-2.4732,-2.4721,-2.4782,-2.4782,-2.4829,-2.4829,-2.4829]}]]